STARLINK-4112 (52861 NORAD) Tracking and Keplerian Element Data

This shows tracking and keplerian element data for the satellite.

Feedback or suggestion? Click here.




ElementValue
Catalog52861
NameSTARLINK-4112
Epoch Orbit130
Epoch Day270.00001157
Epoch Year2022
RAAN279.0739
Inclination53.2167
Eccentricity0.000185
Argument of Perigee44.3275
Mean Anonmoly110.3765
Mean Motion15.08812401
Decay Rate0.00030753
L11 52861U 22062AH 22270.00001157 .00030753 00000+0 19434-2 0 9991
L22 52861 53.2167 279.0739 0001850 44.3275 110.3765 15.08812401 1301

Live tracking and technical data element details for STARLINK-4112 (NORAD 52861). STARLINK-4112 can be tracked NOW for your location showing map with azimuth and elevation plus other details from your city location.

Track the satellite on the map from your city or location and see movement details for azimuth, elevation, latitude, longitude, range, height, and movement on the map or in text.







IsCatalogInMostPopularTable: catalog: 52861, numindb: 8
Update: records affected: 1



GetName: 52861 STARLINK-4112

Hit Count: updated at: Thu, 06 Oct 2022 05:17:13 GMT